Flight Track Log - Related Links

Times and Time Zones

All times are in EDT time to prevent confusion due to time zone crossing. See the SWA182 flight status page for this flight to view local times or setup timezone preferences in your user account.

Time Position Orientation Groundspeed Altitude Reporting Facility
EDT Latitude Longitude Course Direction KTS MPH feet Rate Location/Type
01:20AM 33.9461 -118.4422 262° West 157 181 1,800  Level Los Angeles Center
01:21AM 33.9372 -118.5211 262° West 217 250 5,300 3,393 Climbing Los Angeles Center
01:22AM 33.8806 -118.5675 214° Southwest 261 300 8,700 3,512 Climbing Los Angeles Center
01:23AM 33.7967 -118.5489 170° South 312 359 12,500 2,195 Climbing Los Angeles Center
01:24AM 33.7103 -118.5175 163° South 332 382 13,200 1,820 Climbing Los Angeles Center
01:25AM 33.6639 -118.4139 118° Southeast 364 419 16,200 3,122 Climbing Los Angeles Center
01:26AM 33.6419 -118.2847 101° East 407 468 19,600 3,122 Climbing Los Angeles Center
01:27AM 33.6950 -118.1308 67° East 466 536 22,600 2,656 Climbing Los Angeles Center
01:28AM 33.7978 -118.0417 36° Northeast 464 534 25,000 1,180 Climbing Los Angeles Center
01:29AM 33.8817 -117.9653 37° Northeast 473 544 25,000  Level Los Angeles Center
01:31AM 34.0078 -117.8517 37° Northeast 474 545 25,000  Level Los Angeles Center
01:32AM 34.1119 -117.7514 39° Northeast 479 551 25,000 590 Level Los Angeles Center
01:33AM 34.2003 -117.6264 49° Northeast 490 564 26,200 1,951 Climbing Los Angeles Center
01:34AM 34.3097 -117.4839 47° Northeast 484 557 29,000 1,377 Climbing Los Angeles Center
01:35AM 34.3797 -117.3878 49° Northeast 478 550 29,000  Level Los Angeles Center
01:36AM 34.4722 -117.2619 48° Northeast 482 555 29,000  Level Los Angeles Center
01:37AM 34.5794 -117.1178 48° Northeast 484 557 29,000  Level Los Angeles Center
01:38AM 34.6675 -116.9969 48° Northeast 483 556 29,000  Level Los Angeles Center
01:39AM 34.7578 -116.8747 48° Northeast 488 562 29,000  Level Los Angeles Center
01:40AM 34.8481 -116.7506 48° Northeast 492 566 29,000  Level Los Angeles Center
01:41AM 34.9394 -116.6244 49° Northeast 497 572 29,000  Level Los Angeles Center
01:42AM 35.0306 -116.4994 48° Northeast 498 573 29,000  Level Los Angeles Center
01:43AM 35.1219 -116.3750 48° Northeast 496 571 29,000 -1,082 Level Los Angeles Center
01:44AM 35.2181 -116.2544 46° Northeast 496 571 26,800 -2,656 Descending Los Angeles Center
01:45AM 35.3125 -116.1347 46° Northeast 491 565 23,600 -3,295 Descending Los Angeles Center
01:46AM 35.4194 -116.0006 46° Northeast 466 536 20,100 -3,295 Descending Los Angeles Center
01:47AM 35.5058 -115.8939 45° Northeast 452 520 16,900 -3,143 Descending Los Angeles Center
01:48AM 35.5703 -115.8169 44° Northeast 433 498 14,600 -2,000 Descending Los Angeles Center
01:49AM 35.6481 -115.7156 47° Northeast 406 467 13,400 -703 Descending Los Angeles Center
01:50AM 35.7206 -115.6208 47° Northeast 360 414 13,100 -188 Descending Los Angeles Center
01:51AM 35.8050 -115.5725 25° Northeast 333 383 13,000 -47 Descending Los Angeles Center
01:52AM 35.9031 -115.5672 North 296 341 13,000 50 Level Los Angeles Center
01:53AM 35.9733 -115.5419 16° North 299 344 13,100 -279 Climbing Los Angeles Center
01:54AM 36.0103 -115.4392 66° East 306 352 12,400 -516 Descending Los Angeles Center
01:55AM 36.0292 -115.3406 77° East 281 323 12,000 -730 Descending Los Angeles Center
01:56AM 36.0203 -115.2397 96° East 276 318 11,000 -942 Descending Los Angeles Center
01:57AM 36.0136 -115.1489 95° East 269 310 10,100 -694 Descending Los Angeles Center
01:58AM 36.0089 -115.0681 94° East 228 262 9,600 -879 Descending Los Angeles Center
01:59AM 36.0050 -115.0003 94° East 213 245 8,400 -1,108 Descending Los Angeles Center
02:00AM 36.0011 -114.9164 93° East 206 237 7,200 -893 Descending Los Angeles Center
02:01AM 35.9961 -114.8622 96° East 204 235 6,600 -336 Descending Los Angeles Center
02:02AM 36.0231 -114.8081 58° Northeast 223 257 6,600 -52 Level Los Angeles Center
02:03AM 36.0589 -114.8519 315° West 214 246 6,500 -621 Descending Los Angeles Center
02:04AM 36.0725 -114.9139 285° West 186 214 5,400 -992 Descending Los Angeles Center
02:05AM 36.0725 -114.9831 270° West 165 190 4,300 -857 Descending Los Angeles Center
02:06AM 36.0733 -115.0361 271° West 148 170 3,500 -672 Descending Los Angeles Center
02:07AM 36.0728 -115.0736 269° West 127 146 3,000 -645 Descending Los Angeles Center
02:08AM 36.0731 -115.1239 270° West 126 145 2,200 -727 Descending Los Angeles Center
02:10AM 36.0667 -115.1500 270° West  Level FlightAware Approximate

Login

Don't have an account? Register now (free) for customized features, flight alerts, and more!